Location: Deerlick Astronomy Village
(33.5614°N, 82.7631°W)
Time: 07:52:55
(UTC-04:00)

Iridium 66 - Visible Passes

Search period start: 31 May 2016 00:00
Search period end: 10 June 2016 00:00
Orbit: 776 x 779 km, 86.4° (Epoch: 30 May)

Date Brightness Start Highest point End Pass type
(mag) Time Alt. Az. Time Alt. Az. Time Alt. Az.
31 May 7.3 21:10:50 10° NNE 21:14:52 22° E 21:18:48 10° SE visible
31 May 7.5 22:50:57 10° NNW 22:55:34 33° W 22:59:18 14° SW visible
01 Jun 6.4 22:17:01 10° N 22:22:11 65° W 22:26:17 16° SSW visible
02 Jun 6.0 21:43:30 10° N 21:48:41 65° E 21:53:19 13° SSE visible
02 Jun 8.8 23:27:18 10° WNW 23:28:43 11° WNW 23:30:08 10° W visible
03 Jun 6.8 21:10:24 10° NNE 21:15:04 33° E 21:19:44 10° SSE visible
03 Jun 8.2 22:51:34 10° NNW 22:55:32 22° W 22:59:28 10° SW visible
04 Jun 7.1 22:17:18 10° NNW 22:22:13 43° W 22:27:06 10° SSW visible
05 Jun 6.1 21:43:33 10° N 21:48:47 85° W 21:53:59 10° S visible
06 Jun 6.3 21:10:11 10° N 21:15:14 49° E 21:20:16 10° SSE visible
06 Jun 8.6 22:52:37 10° NW 22:55:26 15° W 22:58:16 10° WSW visible
07 Jun 7.9 22:17:46 10° NNW 22:22:12 29° W 22:26:36 10° SW visible
08 Jun 6.7 21:43:44 10° NNW 21:48:50 56° W 21:53:55 10° SSW visible
09 Jun 6.0 21:10:08 10° N 21:15:22 75° E 21:20:34 10° S visible
